SBIRS GEO-6 (USA 336)

Last updated on Wed Dec 17 2025 00:02:53 GMT+0000 (Coordinated Universal Time)

1 53355U 22092A 25350.29876628 -.00000268 00000+0 00000+0 0 9994 2 53355 3.5776 314.8289 0002045 309.2851 67.6429 1.00271817 12403
UTC large
Height (km)
Speed (km/s)
/
Latitude / Longitude
Inclination (degrees)
Orbital Period (minutes)
Azimuth
Elevation
Range (km)
Doppler Factor

Next 0 passes for location: London (51.5072 / 0.1276)

Sorry there are no passes over London.